Flag for U.S.A. Weather past 2 weeks in New Bedford, Massachusetts, U.S.A.

Now
54 °F

Sunny.


Feels Like: 51 °F
Forecast: 35 / 56 °F
Wind: 10 mph from Southwest

Location: New Bedford Regional Airport

Current Time: Oct 20, 2014 at 2:59:30 PM

Latest Report: Oct 20, 2014 at 1:53 PM


Visibility: 10 mi

Pressure: 30.00 "Hg

Humidity: 45%

Dew point: 33 °F

Location of New BedfordLocation

Historic Weather in New Bedford — Graph

°F

New Bedford temperature yesterday

Maximum temperature yesterday: 57 °F (at 12:53 AM)
Minimum temperature yesterday: 43 °F (at 9:53 PM)
Average temperature yesterday: 52 °F

Past Weeks' High & Low Weather Summary

 TemperatureHumidityPressure
High77 °F (Oct 15, 11:53 AM)100% (Oct 13, 5:53 AM)30.36 "Hg (Oct 13, 5:53 AM)
Low32 °F (Oct 20, 6:53 AM)34% (Oct 9, 1:53 PM)29.50 "Hg (Oct 18, 3:53 PM)
Average58 °F78%29.98 "Hg
* Reported Oct 5 1:53 PM — Oct 20 1:53 PM, New Bedford, Weather by CustomWeather, © 2014

Note: Actual official high and low records may vary slightly from our data, if they occured in-between our weather recording intervals... More about our weather records

Advertising

New Bedford weather history for previous 24 hours

 ConditionsComfort  
Time TempWeatherWind HumidityBarometerVisibility
1:53 PM
Oct 20
54 °FSunny.10 mph45%30.00 "Hg10 mi
12:53 PM53 °FSunny.9 mph45%30.02 "Hg10 mi
11:53 AM51 °FSunny.10 mph48%30.06 "Hg10 mi
10:53 AM49 °FSunny.10 mph52%30.07 "Hg10 mi
9:53 AM46 °FSunny.12 mph54%30.08 "Hg10 mi
8:53 AM43 °FSunny.6 mph62%30.08 "Hg10 mi
7:53 AM34 °FClear.No wind85%30.07 "Hg10 mi
6:53 AM32 °FClear.3 mph82%30.05 "Hg10 mi
5:53 AM35 °FClear.3 mph75%30.03 "Hg10 mi
4:53 AM36 °FClear.3 mph73%30.01 "Hg10 mi
3:53 AM37 °FClear.6 mph70%30.01 "Hg10 mi
2:53 AM38 °FClear.8 mph65%29.99 "Hg10 mi
1:53 AM39 °FClear.8 mph67%29.99 "Hg10 mi
12:53 AM40 °FClear.7 mph65%29.98 "Hg10 mi
10:53 PM
Oct 19
44 °FPassing clouds.13 mph60%29.94 "Hg10 mi
9:53 PM43 °FOvercast.3 mph62%29.93 "Hg10 mi
8:53 PM45 °FClear.5 mph56%29.91 "Hg10 mi
7:53 PM47 °FPassing clouds.5 mph48%29.89 "Hg10 mi
6:53 PM50 °FOvercast.10 mph44%29.87 "Hg10 mi
5:53 PM51 °FOvercast.6 mph48%29.83 "Hg10 mi
4:53 PM53 °FPartly sunny.8 mph47%29.80 "Hg10 mi
3:53 PM54 °FOvercast.12 mph45%29.78 "Hg10 mi
2:53 PM55 °FPartly sunny.12 mph44%29.77 "Hg10 mi
Weather by CustomWeather, © 2014

See weather overviewHow to use our weather pages